This demonstration page uses our WeatherBlox Daily Observations layout. Learn more.

Left ArrowRight Arrow

39.01783, -85.05884

Hourly Observations for February 10, 2019

Temp ( °F °C ) Dew Point ( °F °C ) Humidity (%) Winds ( mph kmh ) Pressure ( in mb ) Visibility ( mi km ) Precip ( " mm )
12:52 am 00:52 Mostly Cloudy 21 -6.1 15 -9.4 78 78 E 7 11 30.62 1037 10 16 0.00 0.00
1:52 am 01:52 Mostly Cloudy 22 -5.6 15 -9.4 75 75 NE 8 13 30.61 1037 10 16 0.00 0.00
2:52 am 02:52 Partly Cloudy 21 -6.1 14 -10 74 74 E 6 9 30.60 1036 10 16 0.00 0.00
3:52 am 03:52 Partly Cloudy 21 -6.1 14 -10 74 74 ESE 7 11 30.57 1035 10 16 0.00 0.00
4:52 am 04:52 Mostly Cloudy 23 -5 13 -10.6 65 65 ESE 8 13 30.53 1034 10 16 0.00 0.00
5:52 am 05:52 Cloudy 24 -4.4 14 -10 65 65 ESE 8 13 30.51 1033 10 16 0.00 0.00
6:52 am 06:52 Cloudy 25 -3.9 14 -10 63 63 ESE 7 11 30.49 1033 10 16 0.00 0.00
7:52 am 07:52 Cloudy 25 -3.9 15 -9.4 66 66 ESE 8 13 30.48 1032 10 16 0.00 0.00
8:52 am 08:52 Cloudy 26 -3.3 16 -8.9 66 66 SE 9 15 30.50 1033 10 16 0.00 0.00
9:52 am 09:52 Cloudy 28 -2.2 17 -8.3 63 63 S 12 19 30.51 1033 10 16 0.00 0.00
10:52 am 10:52 Cloudy with Light Snow 29 -1.7 23 -5 78 78 SSE 9 15 30.47 1032 4 6 0.01 0.25
11:18 am 11:18 Cloudy 30 -1.1 25 -3.9 82 82 S 9 15 30.48 1032 8 13 0.01 0.25
11:52 am 11:52 Cloudy with Light Rain 33 0.6 28 -2.2 82 82 SSE 9 15 30.43 1030 10 16 0.01 0.25
12:22 pm 12:22 Cloudy with Light Snow 33 0.6 29 -1.7 85 85 SSE 8 13 30.42 1030 2 3 0.00 0.03
12:52 pm 12:52 Cloudy with Light Snow 33 0.6 30 -1.1 89 89 SSE 8 13 30.38 1029 2 3 0.02 0.51
1:52 pm 13:52 Cloudy with Light Rain 34 1.1 32 0 92 92 S 6 9 30.36 1028 2 3 0.02 0.51
2:24 pm 14:24 Cloudy with Light Rain 35 1.7 33 0.6 93 93 SSE 5 7 30.35 1028 2 3 0.01 0.25
2:52 pm 14:52 Cloudy with Mist and Fog 35 1.7 33 0.6 93 93 SE 5 7 30.31 1027 2 3 0.01 0.25
3:20 pm 15:20 Cloudy with Light Rain 35 1.7 32 0 89 89 SE 8 13 30.31 1026 2 3 0.00 0.03
3:52 pm 15:52 Cloudy with Drizzle 34 1.1 32 0 92 92 SSE 8 13 30.30 1026 3 4 0.01 0.25
4:52 pm 16:52 Cloudy with Light Rain 34 1.1 32 0 92 92 SSE 8 13 30.28 1025 2 3 0.03 0.76
5:52 pm 17:52 Cloudy with Light Rain 34 1.1 31 -0.6 89 89 SSE 7 11 30.26 1025 3 4 0.04 1.02
6:10 pm 18:10 Cloudy with Light Rain 34 1.1 31 -0.6 89 89 SSE 8 13 30.27 1025 3 4 0.01 0.25
6:52 pm 18:52 Cloudy with Light Rain 34 1.1 32 0 92 92 SSE 9 15 30.25 1024 8 13 0.03 0.76
7:16 pm 19:16 Cloudy 34 1.1 32 0 92 92 S 8 13 30.26 1025 7 11 0.00 0.03
7:52 pm 19:52 Cloudy with Mist and Fog 34 1.1 32 0 92 92 SSE 8 13 30.24 1024 6 10 0.00 0.03
8:52 pm 20:52 Cloudy with Mist and Fog 35 1.7 33 0.6 93 93 SSE 7 11 30.23 1024 5 8 0.00 0.00
9:40 pm 21:40 Cloudy with Light Rain 35 1.7 33 0.6 93 93 S 5 7 30.24 1024 2 3 0.00 0.03
9:52 pm 21:52 Cloudy with Light Rain 35 1.7 34 1.1 96 96 Calm 30.22 1023 2 2 0.00 0.03
10:10 pm 22:10 Cloudy with Light Rain 35 1.7 34 1.1 96 96 SSE 3 6 30.24 1024 1 1 0.01 0.25
10:52 pm 22:52 Cloudy with Drizzle 36 2.2 34 1.1 93 93 ESE 3 6 30.20 1023 1 1 0.01 0.25
11:52 pm 23:52 Cloudy with Light Rain 35 1.7 34 1.1 96 96 SE 3 6 30.19 1022 1 1 0.00 0.03

Powered by AerisWeather